Showing default

KUIPER-00275, 67793

Orbit data source: Space-Track

KUIPER-00275, 67793 is a payload satellite owned by Kuiper Systems (US) in LEO that was launched on Thu, 12 Feb 2026 UTC via an ARIANE 64 launch vehicle from the French Guiana (FRGUI). Payload-class satellites include a variety of spacecraft equipped with specific instruments for various scientific and technological missions. These include communications satellites like Starlink; space stations such as the ISS; scientific satellites like the Hubble; Earth observation satellites from companies like Planet Labs, Umbra, and HawkEye 360; GPS; miniature CubeSats for education and research; and military/defense satellites.

Loading next visibility...
Identifier
67793, 2026-030AF
Orbit
LEO
Country
Flag of USUS
Related business
Manufacturer
Kuiper Systems
Mission
Operational Commercial Communications
Bus & Motor
KUIPER, Unknown motor
Mass
~490 kg wet, ~490 kg dry
Launch date (UTC)
2026-02-12 (4 months ago)
Launch vehicle
ARIANE 64
Launch site
French Guiana (FRGUI)
Object type
Payload
Rocket body
Debris
Shape & HBR
Box + 2 Pan, 3.4 m
Radar Cross Section
2.326 m², Large (>1 m²)

Expand to show TLE details & history
Last TLE update: 12 hours ago

TLE from 12 hours ago
0 KUIPER-00275
1 67793U 26030AF  26171.41668980 -.00068018  00000-0 -81354-2 0  9990
2 67793  51.8993  88.9359 0007135  70.2389   1.6999 14.84030364  5413
Epoch: 2026-06-20T10:00Z
TLE epoch observation values (Epoch: 2026-06-20T10:00:01.998Z)
Latitude
48.57884°
Longitude
92.41466°
Altitude
617.023 km
Speed
7.559 km/s
True Right ascension
10h 04m 13s
True Declination
48° 24' 17"
Sunlit
Object was in daylight at epoch
Visualization orbit readout
Latitude
Unknown
Longitude
Unknown
Altitude
Unknown
Speed
Unknown
Apparent Right ascension
Unknown
Apparent Declination
Unknown
Sunlit
N/A
Visualization observer readout
Local Sidereal Time
08:41:33
Azimuth
Unknown
Elevation
Unknown
Doppler factor
Unknown
Orbital elements
Apogee altitude
622.074 km
Perigee altitude
612.092 km
Semi-major axis
6,995.22 km
Eccentricity
0.00071
Inclination
51.8993°
RAAN
88.9359°
Arg. of periapsis
70.2389°
True anomaly
1.70233°
Mean anomaly
1.6999°
Eccentric anomaly
1.70111°
Mean motion
3.70972 °/min
Orbital period
97.04 mins
BSTAR
-0.0081354
Loading maneuver chart data...
Computing Atmospheric mass density...
Loading historical data...
Loading historical data...
Loading historical data...
Loading historical data...
Loading historical data...
Loading historical data...
Loading historical data...

Documentation

Showing up to 5 results
|